Preview of NWS' New Version of Forecast
This preview is not operational and should not be used for support decisions.

Regional Weather Roundup (RWR)

Issued by National Weather Service (NWS)

                            
000
ASUS44 KJAN 221910
RWRMS 

MISSISSIPPI HOURLY WEATHER ROUNDUP
NATIONAL WEATHER SERVICE JACKSON MS
200 PM CDT FRI MAR 22 2019

NOTE: "FAIR: INDICATES FEW OR NO CLOUDS BELOW 12,000 FEET WITH NO
SIGNIFICANT WEATHER AND/OR OBSTRUCTIONS TO VISIBILITY.

MSZ001>002-007>008-010>013-018>021-025>028-034>036-222000-
NORTHWEST MISSISSIPPI
  
CITY           SKY/WX    TMP DP  RH WIND       PRES   REMARKS
BATESVILLE     FAIR      64  36  34 SW6G13    30.17F                  
CLARKSDALE     SUNNY     68  37  32 W8        30.19F                  
CLEVELAND      FAIR      66  36  32 N3        30.19F                  
GREENWOOD      FAIR      66  35  31 VRB5      30.19F                  
GREENVILLE     FAIR      67  37  33 NE7       30.17F                  
OLIVE BRANCH   MOSUNNY   61  32  33 NW9       30.17F                  
OXFORD         FAIR      64  32  29 W8G15     30.19F                  
TUNICA           N/A     61  36  39 NW3       30.20F                  
WINONA         FAIR      65  37  36 W6        30.17F                  
$$

MSZ003>006-009-014>017-022>024-029>033-037>039-222000-
NORTHEAST MISSISSIPPI
  
CITY           SKY/WX    TMP DP  RH WIND       PRES   REMARKS
ABERDEEN       FAIR      63  45  51 VRB5G13   30.17F                  
COLUMBUS AFB   NOT AVBL                                               
CORINTH        FAIR      66  34  30 NW10      30.14F                  
GOLDN TRIANGLE FAIR      66  38  35 VRB5      30.16F                  
STARKVILLE     FAIR      64  36  34 W5        30.17F                  
TUPELO         FAIR      66  33  29 NW8       30.16F                  
$$

MSZ040-058-222000-
CENTRAL MISSISSIPPI
  
CITY           SKY/WX    TMP DP  RH WIND       PRES   REMARKS
JACKSON INTL   FAIR      66  35  31 VRB3      30.17F                  
JACKSON HAWKNS FAIR      69  36  29 NW9G20    30.17F                  
MADISON        FAIR      64  36  34 NW6       30.17F                  
MERIDIAN KEY   FAIR      71  36  27 NE8G14    30.15F                  
MERIDIAN NAS   FAIR      67  36  31 NW7       30.16F                  
RAYMOND        FAIR      70  36  28 VRB6G13   30.16F                  
VICKSBURG VKS  CLEAR     68  36  30 NW12      30.18F                  
$$

MSZ059>079-222000-
SOUTH MISSISSIPPI
  
CITY           SKY/WX    TMP DP  RH WIND       PRES   REMARKS
HATTIESBURG    FAIR      70  35  27 N12G17    30.16F                  
LAUREL         CLEAR     68  36  31 NW7       30.16F                  
MCCOMB         FAIR      72  32  23 NW14      30.15F                  
NATCHEZ        FAIR      71  38  29 N9        30.16F                  
PINE BELT      FAIR      71  37  28 N7        30.16F                  
$$

MSZ080>082-222000-
COASTAL MISSISSIPPI
  
CITY           SKY/WX    TMP DP  RH WIND       PRES   REMARKS
BAY ST LOUIS   SUNNY     72  39  30 S7        30.15F                  
BILOXI         NOT AVBL                                               
PASCAGOULA     FAIR      74  36  25 NW10      30.14F                  
GULFPORT       FAIR      66  42  41 S9        30.15F                  
$$

LAZ007>009-015>016-023>026-222000-
NORTHEAST LOUISIANA
  
CITY           SKY/WX    TMP DP  RH WIND       PRES   REMARKS
BASTROP        FAIR      70  35  27 CALM      30.17F                  
TALLULAH/VBURG FAIR      66  42  41 NE8       30.18F                  
VIDALIA        FAIR      71  39  31 NE8       30.16F                  
$$